FW4175 Weather Reports


Display with metric or nautical units.
time (UTC)temp
F
wind
direction
speed
MPH
gust
MPH
rain 1hr
in
rain 24hr
in
rain mn
in
humidity
%
barometer
mb
20260905055154 72 142 0.0 1.0 0.00 0.00 0.00 99 1015.7
20260905054649 73 129 0.0 1.0 0.00 0.00 0.00 99 1015.7
20260905054145 73 25 0.0 2.0 0.00 0.00 0.00 99 1015.7
20260905053644 73 352 1.0 2.0 0.00 0.00 0.00 99 1015.8
20260905053140 73 342 1.0 2.0 0.00 0.00 0.00 99 1015.9
20260905052639 73 15 0.0 1.0 0.00 0.00 0.00 99 1015.7
20260905052134 73 141 0.0 0.0 0.00 0.00 0.00 99 1015.9
20260905051629 73 131 0.0 1.0 0.00 0.00 0.00 99 1015.7
20260905051125 73 66 0.0 0.0 0.00 0.00 0.00 99 1015.7
20260905050616 73 66 0.0 1.0 0.00 0.00 0.00 99 1015.8
20260905050113 73 309 0.0 2.0 0.00 0.00 0.00 99 1015.9
20260905045612 73 309 0.0 0.0 0.00 0.03 0.03 99 1015.9
20260905045108 73 205 0.0 0.0 0.00 0.03 0.03 99 1015.7
20260905044608 73 205 0.0 2.0 0.00 0.03 0.03 99 1015.8
20260905044103 73 326 0.0 2.0 0.00 0.03 0.03 99 1016.0
20260905043601 73 346 2.0 2.0 0.00 0.03 0.03 99 1015.8
20260905043057 73 333 0.0 2.0 0.00 0.03 0.03 99 1016.0
20260905042555 73 344 1.0 2.0 0.00 0.03 0.03 99 1015.9
20260905042051 73 336 0.0 2.0 0.00 0.03 0.03 99 1016.1
20260905041546 73 336 0.0 0.0 0.00 0.03 0.03 99 1015.9
20260905041042 73 89 0.0 0.0 0.00 0.03 0.03 99 1015.9
20260905040541 73 89 0.0 1.0 0.00 0.03 0.03 99 1015.6
20260905040040 73 322 0.0 1.0 0.00 0.03 0.03 99 1016.2
20260905035535 73 196 0.0 2.0 0.00 0.03 0.03 99 1016.2
20260905035032 74 343 0.0 2.0 0.00 0.03 0.03 99 1016.2
20260905034527 74 352 0.0 2.0 0.00 0.03 0.03 99 1016.4
20260905034021 74 339 0.0 2.0 0.00 0.03 0.03 99 1016.3
20260905033515 74 37 0.0 1.0 0.00 0.03 0.03 99 1016.4
20260905033011 74 44 0.0 0.0 0.00 0.03 0.03 99 1016.4
20260905032506 74 32 0.0 2.0 0.00 0.03 0.03 99 1016.7
20260905032001 74 241 0.0 1.0 0.00 0.03 0.03 98 1016.4
20260905031456 75 146 4.0 6.0 0.07 0.03 0.03 98 1016.2
20260905030951 75 344 1.0 4.0 0.14 0.03 0.03 97 1016.1
20260905030446 75 55 2.0 4.0 0.07 0.02 0.02 97 1016.2
20260905025939 75 222 0.0 2.0 0.00 0.00 0.00 96 1016.2
20260905025435 75 14 1.0 3.0 0.00 0.00 0.00 96 1016.2
20260905024932 75 13 3.0 4.0 0.00 0.00 0.00 96 1016.7
20260905024431 75 62 0.0 4.0 0.00 0.00 0.00 96 1016.3
20260905023926 75 23 4.0 6.0 0.00 0.00 0.00 95 1016.2
20260905023421 75 44 2.0 5.0 0.00 0.00 0.00 95 1016.2
20260905022921 75 15 0.0 2.0 0.00 0.00 0.00 95 1016.4
20260905022416 75 50 3.0 5.0 0.00 0.00 0.00 95 1016.3
20260905021911 75 342 6.0 7.0 0.00 0.00 0.00 95 1016.7
20260905021406 75 328 3.0 5.0 0.00 0.00 0.00 95 1016.3
20260905020901 76 7 0.0 4.0 0.00 0.00 0.00 94 1016.2
20260905020400 76 82 3.0 5.0 0.00 0.00 0.00 94 1016.3
20260905015855 76 28 2.0 4.0 0.00 0.00 0.00 94 1016.1
20260905015354 76 40 4.0 9.0 0.00 0.00 0.00 93 1016.2
20260905014853 76 22 4.0 9.0 0.00 0.00 0.00 93 1016.3
20260905014349 76 29 4.0 9.0 0.00 0.00 0.00 92 1016.1
20260905013844 76 347 4.0 7.0 0.00 0.00 0.00 92 1016.3
20260905013340 77 344 4.0 7.0 0.00 0.00 0.00 92 1016.4
20260905012835 77 4 3.0 9.0 0.00 0.00 0.00 91 1016.2
20260905012331 77 330 4.0 6.0 0.00 0.00 0.00 91 1015.9
20260905011828 77 331 3.0 6.0 0.00 0.00 0.00 90 1015.9
20260905011328 78 8 1.0 5.0 0.00 0.00 0.00 89 1016.0
20260905010823 78 20 3.0 7.0 0.00 0.00 0.00 89 1015.9
20260905010318 78 4 4.0 6.0 0.00 0.00 0.00 89 1015.6
20260905005815 78 15 3.0 6.0 0.00 0.00 0.00 88 1015.5
20260905005310 79 29 3.0 4.0 0.00 0.00 0.00 88 1015.4
20260905004804 79 24 2.0 8.0 0.00 0.00 0.00 88 1015.1
20260905004259 80 341 3.0 8.0 0.00 0.00 0.00 87 1014.9
20260905003754 80 28 5.0 6.0 0.00 0.00 0.00 87 1015.0
20260905003250 81 17 3.0 7.0 0.00 0.00 0.00 86 1015.0
20260905002746 83 7 1.0 5.0 0.00 0.00 0.00 85 1015.1
20260905002245 84 50 3.0 4.0 0.00 0.00 0.00 84 1014.7
20260905001741 83 54 2.0 2.0 0.00 0.00 0.00 86 1015.1
20260905001240 83 326 0.0 2.0 0.00 0.00 0.00 87 1015.4
20260905000736 83 320 1.0 3.0 0.00 0.00 0.00 87 1015.3
20260905000233 84 5 0.0 2.0 0.00 0.00 0.00 86 1015.0
20260904235726 85 346 1.0 2.0 0.00 0.00 0.00 84 1015.0
20260904235221 85 335 0.0 2.0 0.00 0.00 0.00 83 1014.9
20260904234715 86 333 1.0 2.0 0.00 0.00 0.00 81 1014.7
20260904234211 86 212 0.0 0.0 0.00 0.00 0.00 79 1014.7
20260904233707 87 212 0.0 2.0 0.00 0.00 0.00 78 1014.4
20260904233202 87 217 0.0 3.0 0.00 0.00 0.00 77 1014.5
20260904232659 88 235 0.0 3.0 0.00 0.00 0.00 77 1014.5
20260904232155 88 241 2.0 5.0 0.00 0.00 0.00 76 1014.5
20260904231650 89 175 2.0 3.0 0.00 0.00 0.00 75 1014.3
20260904231145 89 182 3.0 4.0 0.00 0.00 0.00 73 1014.5
20260904230644 89 230 6.0 9.0 0.00 0.00 0.00 73 1014.6
20260904230140 89 196 2.0 7.0 0.00 0.00 0.00 73 1014.5
20260904225638 89 193 3.0 10.0 0.00 0.00 0.00 72 1014.5
20260904225133 90 204 1.0 8.0 0.00 0.00 0.00 72 1014.2
20260904224627 90 158 2.0 9.0 0.00 0.00 0.00 72 1014.6
20260904224122 90 190 2.0 6.0 0.00 0.00 0.00 71 1014.5
20260904223621 90 155 5.0 6.0 0.00 0.00 0.00 70 1014.4
20260904223116 90 147 2.0 9.0 0.00 0.00 0.00 71 1014.6
20260904222613 90 142 7.0 10.0 0.00 0.00 0.00 70 1014.5
20260904222108 90 199 2.0 9.0 0.00 0.00 0.00 70 1014.5
20260904221608 90 206 6.0 13.0 0.00 0.00 0.00 70 1014.6
20260904221108 90 174 3.0 9.0 0.00 0.00 0.00 69 1014.3
20260904220602 90 140 6.0 13.0 0.00 0.00 0.00 69 1014.5
20260904220058 91 170 3.0 9.0 0.00 0.00 0.00 69 1014.4
20260904215551 90 209 5.0 9.0 0.00 0.00 0.00 68 1014.2
20260904215047 90 213 5.0 10.0 0.00 0.00 0.00 70 1014.4
20260904214542 90 180 4.0 9.0 0.00 0.00 0.00 70 1014.5
20260904214033 89 181 5.0 10.0 0.00 0.00 0.00 70 1014.3
20260904213531 88 182 4.0 11.0 0.00 0.00 0.00 72 1014.7
20260904213028 88 218 5.0 8.0 0.00 0.00 0.00 72 1014.6
20260904212526 88 189 7.0 8.0 0.00 0.00 0.00 70 1014.6
20260904212022 88 207 7.0 10.0 0.00 0.00 0.00 71 1014.5
20260904211522 89 159 4.0 8.0 0.00 0.00 0.00 70 1014.4
20260904211017 88 218 9.0 14.0 0.00 0.00 0.00 70 1014.2
20260904210517 88 164 4.0 10.0 0.00 0.00 0.00 71 1014.4
20260904210013 89 180 5.0 11.0 0.00 0.00 0.00 69 1014.2
20260904205508 89 184 3.0 16.0 0.00 0.00 0.00 69 1014.4
20260904205005 89 155 5.0 9.0 0.00 0.00 0.00 69 1014.3
20260904204500 89 191 7.0 11.0 0.00 0.00 0.00 70 1014.5
20260904203956 88 206 7.0 13.0 0.00 0.00 0.00 69 1014.8
20260904203452 88 205 4.0 14.0 0.00 0.00 0.00 71 1014.5
20260904202948 88 194 7.0 8.0 0.00 0.00 0.00 70 1014.9
20260904202444 89 127 8.0 14.0 0.00 0.00 0.00 71 1014.8
20260904201940 89 213 7.0 16.0 0.00 0.00 0.00 71 1014.7
20260904201435 88 214 4.0 12.0 0.00 0.00 0.00 72 1014.8
20260904200931 88 184 4.0 11.0 0.00 0.00 0.00 71 1014.8
20260904200428 87 197 5.0 14.0 0.00 0.00 0.00 72 1014.9
20260904195924 86 149 4.0 13.0 0.00 0.00 0.00 75 1015.2
20260904195421 85 153 4.0 7.0 0.00 0.00 0.00 75 1014.9
20260904194916 85 160 9.0 16.0 0.00 0.00 0.00 74 1015.1
20260904194416 86 135 9.0 18.0 0.00 0.00 0.00 74 1015.0
20260904193911 87 122 6.0 13.0 0.00 0.00 0.00 72 1015.1
20260904193406 87 169 5.0 15.0 0.00 0.00 0.00 73 1015.3
20260904192901 86 165 7.0 17.0 0.00 0.00 0.00 73 1015.1
20260904192357 86 177 8.0 12.0 0.00 0.00 0.00 71 1015.6
20260904191853 85 129 7.0 14.0 0.00 0.00 0.00 73 1015.3
20260904191349 85 151 9.0 16.0 0.00 0.00 0.00 74 1015.6
20260904190846 85 144 8.0 14.0 0.00 0.00 0.00 73 1015.4
20260904190341 85 128 14.0 18.0 0.00 0.00 0.00 72 1015.8
20260904185838 85 130 3.0 15.0 0.00 0.00 0.00 76 1016.0
20260904185333 84 161 6.0 13.0 0.00 0.00 0.00 76 1016.2
20260904184832 84 113 8.0 12.0 0.00 0.00 0.00 77 1016.2
20260904184327 83 200 4.0 16.0 0.00 0.00 0.00 78 1016.1
20260904183823 83 163 7.0 17.0 0.00 0.00 0.00 80 1016.4
20260904183318 82 178 9.0 15.0 0.00 0.00 0.00 80 1016.2
20260904182813 81 135 10.0 15.0 0.00 0.00 0.00 82 1016.6
20260904182308 81 155 5.0 12.0 0.00 0.00 0.00 83 1016.6
20260904181804 80 185 5.0 13.0 0.00 0.00 0.00 84 1016.7
20260904181303 79 136 11.0 18.0 0.00 0.00 0.00 85 1016.7
20260904180759 78 149 11.0 19.0 0.00 0.00 0.00 87 1016.8
20260904180254 78 170 6.0 13.0 0.00 0.00 0.00 90 1016.7
20260904175753 78 143 14.0 15.0 0.00 0.00 0.00 89 1016.4
20260904175251 78 143 5.0 10.0 0.00 0.00 0.00 92 1016.7
20260904174746 77 145 3.0 11.0 0.00 0.00 0.00 92 1016.6
20260904174242 75 143 6.0 12.0 0.00 0.00 0.00 94 1016.4
20260904173738 75 141 5.0 10.0 0.00 0.00 0.00 95 1016.4
20260904173238 73 131 4.0 13.0 0.00 0.00 0.00 97 1016.6
20260904172735 73 133 3.0 11.0 0.00 0.00 0.00 97 1016.9
20260904172233 73 149 5.0 12.0 0.00 0.00 0.00 98 1017.0
20260904171729 73 104 2.0 11.0 0.00 0.00 0.00 98 1017.2
20260904171224 73 132 4.0 8.0 0.00 0.00 0.00 98 1017.7
20260904170720 73 124 3.0 7.0 0.00 0.00 0.00 98 1018.3
20260904170216 73 153 4.0 6.0 0.00 0.00 0.00 97 1018.8
20260904165714 73 128 1.0 11.0 0.00 0.00 0.00 97 1019.1
20260904165209 73 162 3.0 7.0 0.00 0.00 0.00 97 1019.2
20260904164703 73 136 5.0 13.0 0.02 0.00 0.00 96 1018.9
20260904164158 74 120 7.0 10.0 0.00 0.00 0.00 94 1019.3
20260904163655 74 55 5.0 10.0 0.00 0.00 0.00 92 1019.4
20260904163150 75 37 4.0 7.0 0.00 0.00 0.00 91 1019.2
20260904162648 76 105 3.0 11.0 0.00 0.00 0.00 91 1018.9
20260904162144 75 134 6.0 13.0 0.00 0.00 0.00 92 1018.9
20260904161639 75 188 3.0 6.0 0.00 0.00 0.00 93 1018.9
20260904161134 75 87 3.0 10.0 0.00 0.00 0.00 93 1019.6
20260904160630 75 44 11.0 11.0 0.00 0.00 0.00 92 1019.6
20260904160125 75 354 2.0 13.0 0.00 0.00 0.00 92 1019.0
20260904155620 75 61 3.0 15.0 0.00 0.00 0.00 92 1018.9
20260904155114 75 81 1.0 12.0 0.00 0.00 0.00 93 1019.0
20260904154608 74 34 3.0 10.0 0.00 0.00 0.00 93 1019.1
20260904154102 74 167 4.0 8.0 0.00 0.00 0.00 94 1019.0
20260904153602 73 47 5.0 11.0 0.00 0.00 0.00 95 1019.1
20260904153059 73 48 7.0 12.0 0.00 0.00 0.00 95 1019.6
20260904152554 73 60 8.0 11.0 0.00 0.00 0.00 96 1019.4
20260904152049 72 22 4.0 14.0 0.00 0.00 0.00 96 1019.6
20260904151544 72 21 12.0 15.0 0.00 0.00 0.00 96 1019.6
20260904151043 73 355 5.0 17.0 0.00 0.00 0.00 97 1019.9
20260904150538 74 41 6.0 9.0 0.00 0.00 0.00 97 1019.5
20260904150033 74 8 4.0 9.0 0.00 0.00 0.00 97 1019.6
20260904145532 74 357 5.0 9.0 0.00 0.00 0.00 97 1019.5
20260904145028 74 357 2.0 10.0 0.00 0.00 0.00 97 1019.5
20260904144524 74 6 4.0 9.0 0.00 0.00 0.00 96 1019.3
20260904144020 74 6 3.0 9.0 0.00 0.00 0.00 96 1019.3
20260904143515 75 337 3.0 14.0 0.00 0.00 0.00 95 1019.3
20260904143012 75 264 2.0 13.0 0.00 0.00 0.00 94 1018.6
20260904142508 75 272 0.0 6.0 0.00 0.00 0.00 94 1017.9
20260904142008 75 5 6.0 7.0 0.00 0.00 0.00 93 1018.3
20260904141503 76 326 3.0 9.0 0.00 0.00 0.00 93 1018.2
20260904140958 75 2 6.0 10.0 0.00 0.00 0.00 92 1018.1
20260904140453 76 30 7.0 10.0 0.00 0.00 0.00 92 1017.9
20260904135951 76 62 2.0 9.0 0.00 0.00 0.00 92 1018.4
20260904135446 75 35 8.0 14.0 0.00 0.00 0.00 92 1018.2
20260904134943 76 358 2.0 10.0 0.00 0.00 0.00 92 1018.2
20260904134442 76 62 3.0 6.0 0.00 0.00 0.00 92 1018.0
20260904133937 75 24 3.0 7.0 0.00 0.00 0.00 94 1018.1
20260904133432 74 59 5.0 10.0 0.00 0.00 0.00 96 1018.1
20260904132928 73 1 7.0 9.0 0.00 0.00 0.00 97 1018.0
20260904132423 73 342 6.0 9.0 0.00 0.00 0.00 97 1018.0
20260904131922 73 31 3.0 12.0 0.00 0.00 0.00 97 1018.0
20260904131418 72 25 3.0 6.0 0.00 0.00 0.00 98 1018.0
20260904130913 72 328 3.0 5.0 0.00 0.00 0.00 98 1017.9
20260904130412 72 339 4.0 7.0 0.00 0.00 0.00 98 1017.9
20260904125907 72 7 4.0 9.0 0.00 0.00 0.00 98 1017.9
20260904125404 72 350 8.0 8.0 0.00 0.00 0.00 98 1017.8
20260904124903 72 17 2.0 8.0 0.00 0.00 0.00 98 1017.9
20260904124359 71 334 1.0 5.0 0.00 0.00 0.00 98 1017.5
20260904123854 71 11 3.0 6.0 0.00 0.00 0.00 98 1017.6
20260904123350 71 341 3.0 4.0 0.00 0.00 0.00 99 1017.3
20260904122845 71 19 2.0 5.0 0.00 0.00 0.00 99 1017.3
20260904122344 71 31 3.0 3.0 0.00 0.00 0.00 99 1017.3
20260904121839 71 333 0.0 3.0 0.00 0.00 0.00 99 1017.3
20260904121336 70 344 1.0 3.0 0.00 0.00 0.00 99 1017.0
20260904120832 70 0 2.0 3.0 0.00 0.00 0.00 99 1016.7
20260904120327 70 33 0.0 2.0 0.00 0.00 0.00 99 1016.8
20260904115822 70 38 2.0 4.0 0.00 0.00 0.00 99 1016.8
20260904115318 70 13 1.0 6.0 0.00 0.00 0.00 99 1016.3
20260904114818 70 31 2.0 4.0 0.00 0.00 0.00 99 1016.3
20260904114312 70 63 4.0 5.0 0.00 0.00 0.00 99 1016.2
20260904113807 70 12 3.0 5.0 0.00 0.00 0.00 99 1016.2
20260904113306 70 2 2.0 7.0 0.00 0.00 0.00 99 1016.1
20260904112801 71 28 1.0 8.0 0.00 0.00 0.00 99 1016.2
20260904112257 71 330 3.0 10.0 0.00 0.00 0.00 99 1015.8
20260904111753 71 5 2.0 8.0 0.00 0.00 0.00 99 1015.9
20260904111248 71 22 4.0 9.0 0.00 0.00 0.00 99 1015.7
20260904110743 71 14 4.0 11.0 0.00 0.00 0.00 99 1015.8
20260904110242 72 356 5.0 10.0 0.00 0.00 0.00 99 1015.9
20260904105738 72 33 1.0 9.0 0.00 0.00 0.00 99 1015.9
20260904105232 72 306 2.0 5.0 0.00 0.00 0.00 99 1015.6
20260904104728 72 4 0.0 11.0 0.00 0.00 0.00 99 1015.3
20260904104223 72 338 5.0 11.0 0.00 0.00 0.00 99 1015.6
20260904103720 72 350 4.0 5.0 0.00 0.00 0.00 99 1015.6
20260904103215 72 347 2.0 2.0 0.00 0.00 0.00 99 1015.3
20260904102711 72 142 0.0 0.0 0.00 0.00 0.00 99 1015.1
20260904102206 72 124 0.0 1.0 0.00 0.00 0.00 99 1015.2
20260904101703 72 37 0.0 1.0 0.00 0.00 0.00 99 1015.1
20260904101158 73 135 0.0 2.0 0.00 0.00 0.00 99 1015.1
20260904100654 73 136 0.0 2.0 0.00 0.00 0.00 99 1015.2
20260904100149 73 37 0.0 1.0 0.00 0.00 0.00 99 1015.2
20260904095648 73 117 0.0 0.0 0.00 0.00 0.00 99 1015.1
20260904095143 73 326 0.0 2.0 0.00 0.00 0.00 99 1015.3
20260904094639 73 346 0.0 1.0 0.00 0.00 0.00 99 1015.2
20260904094133 73 22 0.0 2.0 0.00 0.00 0.00 99 1015.1
20260904093630 73 333 0.0 2.0 0.00 0.00 0.00 99 1015.2
20260904093129 73 346 3.0 4.0 0.00 0.00 0.00 99 1015.1
20260904092626 73 39 0.0 1.0 0.00 0.00 0.00 99 1014.7
20260904092122 74 189 0.0 1.0 0.00 0.00 0.00 99 1014.9
20260904091618 74 297 0.0 2.0 0.00 0.00 0.00 99 1014.9
20260904091118 74 349 1.0 2.0 0.00 0.00 0.00 99 1015.0
20260904090613 75 142 0.0 3.0 0.00 0.00 0.00 99 1014.8
20260904090108 75 205 2.0 2.0 0.00 0.00 0.00 99 1014.9
20260904085603 75 144 0.0 1.0 0.00 0.00 0.00 99 1015.0
20260904085102 75 322 0.0 2.0 0.00 0.00 0.00 99 1014.7
20260904084558 75 154 0.0 2.0 0.00 0.00 0.00 99 1014.8
20260904084054 75 191 0.0 5.0 0.00 0.00 0.00 99 1014.4
20260904083550 74 171 2.0 5.0 0.00 0.00 0.00 99 1014.8
20260904083046 74 188 2.0 4.0 0.00 0.00 0.00 99 1014.9
20260904082541 74 161 2.0 5.0 0.00 0.00 0.00 99 1014.7
20260904082036 73 171 3.0 5.0 0.00 0.00 0.00 99 1014.8
20260904081531 73 157 3.0 5.0 0.00 0.00 0.00 99 1015.0
20260904081027 73 172 2.0 6.0 0.00 0.00 0.00 99 1015.0
20260904080522 72 157 4.0 5.0 0.00 0.00 0.00 99 1015.3
20260904080019 72 156 3.0 3.0 0.00 0.00 0.00 99 1015.6
20260904075514 72 138 1.0 1.0 0.00 0.00 0.00 99 1015.8
20260904075009 72 346 1.0 2.0 0.00 0.00 0.00 99 1015.8
20260904074503 72 350 0.0 1.0 0.00 0.00 0.00 99 1015.6
20260904073958 72 242 0.0 2.0 0.00 0.00 0.00 99 1015.5
20260904073453 72 243 1.0 1.0 0.00 0.00 0.00 99 1015.3
20260904072949 72 218 0.0 1.0 0.00 0.00 0.00 99 1015.3
20260904072445 72 130 0.0 0.0 0.00 0.00 0.00 99 1015.5
20260904071944 72 130 0.0 1.0 0.00 0.00 0.00 99 1015.3
20260904071440 72 142 0.0 1.0 0.00 0.00 0.00 99 1015.0
20260904070935 72 117 0.0 0.0 0.00 0.00 0.00 99 1015.3
20260904070433 73 89 0.0 2.0 0.00 0.00 0.00 99 1015.2
20260904065928 73 8 0.0 1.0 0.00 0.00 0.00 99 1015.1
20260904065425 73 0 0.0 2.0 0.00 0.00 0.00 99 1015.4
20260904064925 73 343 1.0 2.0 0.00 0.00 0.00 99 1015.0
20260904064421 73 23 1.0 3.0 0.00 0.00 0.00 99 1015.2
20260904063916 73 341 2.0 3.0 0.00 0.00 0.00 99 1015.4
20260904063413 73 353 0.0 4.0 0.00 0.00 0.00 99 1015.2
20260904062907 73 29 1.0 4.0 0.00 0.00 0.00 99 1015.1
20260904062403 73 69 3.0 3.0 0.00 0.00 0.00 99 1015.3
20260904061859 73 150 0.0 4.0 0.00 0.00 0.00 99 1015.2
20260904061355 73 142 4.0 6.0 0.00 0.00 0.00 99 1015.4
20260904060851 73 160 0.0 1.0 0.00 0.00 0.00 99 1015.3
20260904060347 73 135 0.0 2.0 0.00 0.00 0.00 99 1015.5
20260904055842 73 156 3.0 3.0 0.00 0.00 0.00 99 1015.8